Regional Weather Roundup
Issued by NWS

Home | Current Version | Previous Version | Text Only | Print | Product List | Glossary On
Versions: 1 2 3 4 5 6 7 8 9 10 11 12 13 14 15 16 17 18 19 20 21 22 23 24 25 26 27 28 29 30 31 32 33 34 35 36 37 38 39 40 41 42 43 44 45 46 47 48 49 50
000
ASUS46 KSTO 210115
RWRCA

NORTHERN AND CENTRAL CA REGIONAL WEATHER ROUNDUP
NATIONAL WEATHER SERVICE SACRAMENTO CA
600 PM PDT FRI OCT 20 2017

NOTE: FAIR INDICATES FEW OR NO CLOUDS BELOW 12,000 FEET WITH NO
SIGNIFICANT WEATHER AND/OR OBSTRUCTIONS TO VISIBILITY.

CAZ001-003-210200-
NORTHWEST AREA

CITY           SKY/WX    TMP DP  RH WIND       PRES   REMARKS
CRESCENT CITY  MOCLDY    53  50  89 S10       30.13S
UKIAH          MOCLDY    57  39  51 NW6       30.12S
$$

CAZ006-505>513-210200-
BAY AREA

CITY           SKY/WX    TMP DP  RH WIND       PRES   REMARKS
SANTA ROSA     MOCLDY    58  45  62 W8        30.09F
SAN RAFAEL     N/A       61  MM  MM MISG
NAPA           MOCLDY    59  48  67 W16       30.09F
CONCORD        MOCLDY    63  46  54 W14       30.09S
OAKLAND CITY   N/A      MM  MM  MM MISG
OAKLAND        MOCLDY    58  50  75 W22       30.11F
SAN FRAN CITY  N/A       57  MM  72 MISG
SAN FRAN ARPT  MOCLDY    59  48  67 W17       30.12S
LIVERMORE      MOCLDY    57  47  69 W16       30.09S
HAYWARD        MOCLDY    58  46  64 W14       30.11S
REDWOOD CITY   N/A       58  MM  68 MISG
MOFFETT ARPT   MOCLDY    60  45  57 W8        30.12S
SAN JOSE ARPT  MOCLDY    61  45  55 W14       30.11F
$$
CAZ034-037-514>518-210200-
CENTRAL COAST

CITY           SKY/WX    TMP DP  RH WIND       PRES   REMARKS
WATSONVILLE    PTCLDY    62  43  49 W8        30.10S
SALINAS        MOCLDY    59  49  69 W10       30.10F
MONTEREY       MOCLDY    58  49  72 W8G17     30.12F
SAN LUIS OBISP CLEAR     59  49  69 NW22G30   30.02S
SANTA MARIA    CLEAR     60  49  66 NW23G29   30.01R
$$
CAZ015-016-210200-
NORTHERN SACRAMENTO VALLEY

CITY           SKY/WX    TMP DP  RH WIND       PRES   REMARKS
REDDING        PTCLDY    61  43  51 CALM      30.05F
RED BLUFF      MOCLDY    58  44  60 SW9       30.08R
OROVILLE       PTCLDY    61  47  59 SE7       30.08F
$$
CAZ016>018-210200-
SOUTHERN SACRAMENTO VALLEY

CITY           SKY/WX    TMP DP  RH WIND       PRES   REMARKS
AUBURN         MOCLDY    54  45  71 CALM      30.09F
BEALE AFB      MOCLDY    58  47  67 S3        30.06F
LINCOLN        FAIR      59  41  51 CALM      30.07F
MARYSVILLE     MOCLDY    59  47  64 S6        30.08F
SAC INTL ARPT  MOCLDY    61  45  55 CALM      30.07S
MATHER AIRPORT MOCLDY    61  43  51 CALM      30.07F
DOWNTOWN SAC   N/A       60  MM  MM MISG
SAC EXEC ARPT  MOCLDY    61  45  55 NW3       30.07F
VACAVILLE      MOCLDY    63  44  50 W6        30.08F
TRAVIS AFB     MOCLDY    62  45  53 W12       30.06F
$$
CAZ019>021-210200-
SAN JOAQUIN VALLEY

CITY           SKY/WX    TMP DP  RH WIND       PRES   REMARKS
STOCKTON       MOCLDY    62  45  53 W15       30.08R
MODESTO        MOCLDY    63  45  51 NW13G22   30.07R
MERCED         MOCLDY    62  43  49 N15       30.04F
LEMOORE        MOCLDY    62  42  47 N20       30.04R
FRESNO         MOCLDY    61  42  49 NW16G26   30.03S
HANFORD        MOCLDY    63  43  48 N9        30.04R
PORTERVILLE    PTCLDY    63  44  50 NW9       30.02S
BAKERSFIELD    CLEAR     65  42  43 NW13      30.01S
$$
CAZ011-012-071-210200-
NORTHERN MOUNTAINS

CITY           SKY/WX    TMP DP  RH WIND       PRES   REMARKS
YREKA          MOCLDY    47  35  63 W13       30.07R
MOUNT SHASTA   PTCLDY    45  32  60 CALM      30.03S
ALTURAS        LGT SNOW  33  32  96 S3        30.06R FOG
$$
CAZ011-012-071-210200-
SIERRA NEVADA MTNS

CITY           SKY/WX    TMP DP  RH WIND       PRES   REMARKS
BLUE CANYON    CLOUDY    36  35  96 VRB3      30.09S
TAHOE VLY ARPT MOCLDY    38  29  70 S7        30.05R WCI  33
MAMMOTH LAKES  FAIR      43  18  36 N17G25    30.01R
$$




USA.gov is the U.S. government's official web portal to all federal, state and local government web resources and services.